[[[{"header":{"parameterUnit":"kt","parameterCategory":2,"dx":1,"dy":1,"la1":30.253999710083008,"la2":30.299108505249023,"lo1":-89.0895004272461,"lo2":-89.04439544677734,"nx":28,"ny":28,"refTime":"2022-09-25T21:00:00:Z","depth":0,"parameterNumber":1,"parameterNumberName":"U-component_of_WINDS"},"data":[-4.032,-4.0522,-4.0548,-4.079,-4.0854,-4.1025,-4.1094,-4.1187,-4.1266,-4.1473,-4.1597,-4.1643,-4.1734,-4.1888,-4.2023,-4.2041,-4.2099,-4.2151,-4.2164,-4.1903,-4.1869,-4.1836,-4.1791,-4.2162,-4.2162,-4.2432,-4.2435,-4.2437,-4.0126,-4.0191,-4.0326,-4.0475,-4.0592,-4.0556,-4.0672,-4.0772,-4.0926,-4.1025,-4.1148,-4.1333,-4.1481,-4.1556,-4.1704,-4.18,-4.1793,-4.1838,-4.1834,-4.1849,-4.157,-4.1522,-4.1841,-4.1841,-4.1841,-4.1841,-4.1841,-4.1841,-3.978,-3.99,-4.0005,-4.0153,-4.0234,-4.0334,-4.0453,-4.0507,-4.0641,-4.0798,-4.0802,-4.0977,-4.1082,-4.1273,-4.1343,-4.1481,-4.1436,-4.1494,-4.151,-4.1526,-4.154,-4.1152,-4.1506,-4.1506,-4.1505,-4.1504,-4.1504,0,-3.9537,-3.955,-3.9681,-3.9821,-3.993,-4.0041,-4.0147,-4.0221,-4.0258,-4.0367,-4.0526,-4.0623,-4.0813,-4.0967,-4.1111,-4.1173,-4.1151,-4.115,-4.1191,-4.1195,-4.1179,-4.1194,-4.0741,-4.1141,-4.1138,-4.1136,-4.1134,-4.1133,-3.9194,-3.933,-3.9451,-3.954,-3.9605,-3.9748,-3.9839,-3.9861,-3.9957,-4.0091,-4.0196,-4.0349,-4.0474,-4.0726,-4.079,-4.0933,-4.0924,-4.1074,-4.0946,-4.0942,-4.0932,-4.0925,-4.094,-4.1101,-4.1105,-4.1108,-4.1111,0,-3.8999,-3.904,-3.9259,-3.9366,-3.9397,-3.9539,-3.9631,-3.9752,-3.9791,-3.9964,-4.0005,-4.0069,-4.0225,-4.0265,-4.0452,-4.0468,-4.0705,-4.069,-4.0669,-4.067,-4.0811,-4.0799,-4.1257,-4.132,-4.093,-4.0934,-4.0937,0,-3.8725,-3.8902,-3.8953,-3.9079,-3.9276,-3.9294,-3.949,-3.9544,-3.9635,-3.977,-3.9748,-3.9877,-3.9906,-4.0041,-4.0065,-4.0265,-4.0299,-4.0325,-4.033,-4.033,-4.0327,-4.0385,-4.0369,-4.0331,-4.0329,-4.0326,-4.0325,0,-3.8419,-3.8653,-3.8855,-3.8916,-3.9049,-3.9144,-3.9204,-3.9305,-3.9394,-3.9516,-3.9574,-3.9714,-3.9793,-3.9902,-3.9932,-3.9844,-4.0176,-4.0061,-4.0203,-4.0203,-4.0279,-4.0275,-4.0666,-4.0322,-4.0321,-4.032,-4.0319,0,-3.8205,-3.8327,-3.8613,-3.8724,-3.8785,-3.8918,-3.9057,-3.918,-3.9289,-3.9312,-3.9408,-3.94,-3.9576,-3.9459,-3.9702,-3.9579,-3.9657,-3.9697,-3.9708,-3.9731,-3.9601,-3.9821,-4.0185,-4.0227,-3.9745,-3.974,-3.9736,0,-3.7846,-3.8145,-3.8163,-3.8435,-3.8579,-3.8546,-3.8694,-3.8791,-3.8835,-3.8964,-3.9012,-3.916,-3.9081,-3.9133,-3.9247,-3.9305,-3.9464,-3.9283,-3.9475,-3.9481,-3.9451,-3.9785,-3.9832,-4.01,-3.9675,-3.9682,-3.9686,0,-3.7573,-3.7732,-3.778,-3.785,-3.798,-3.8101,-3.827,-3.842,-3.8506,-3.8615,-3.8761,-3.8967,-3.8917,-3.9003,-3.9012,-3.9129,-3.9357,-3.906,-3.9063,-3.9116,-3.9647,-3.969,-3.9735,-3.9336,-3.9344,-3.935,-3.9638,0,-3.7248,-3.7402,-3.753,-3.7685,-3.7783,-3.7955,-3.7997,-3.8095,-3.8093,-3.8136,-3.8347,-3.8438,-3.8592,-3.8652,-3.8651,-3.8906,-3.8871,-3.8816,-3.871,-3.8927,-3.9024,-3.9063,-3.8563,-3.856,-3.8557,-3.8555,0,0,-3.6896,-3.7118,-3.7133,-3.7298,-3.7383,-3.7347,-3.7527,-3.7605,-3.7765,-3.7825,-3.7764,-3.807,-3.8148,-3.8401,-3.8472,-3.8533,-3.8584,-3.8507,-3.8822,-3.8852,-3.8879,-3.8982,-3.9021,-3.8551,-3.855,-3.8549,-3.8548,0,-3.6787,-3.6863,-3.704,-3.7121,-3.7242,-3.7278,-3.732,-3.7435,-3.7471,-3.7677,-3.7648,-3.7779,-3.8023,-3.811,-3.8186,-3.8475,-3.8448,-3.8518,-3.8661,-3.8796,-3.8829,-3.8858,-3.8965,-3.9002,-3.8542,-3.8543,-3.8543,0,-3.6529,-3.6612,-3.6701,-3.689,-3.6969,-3.7118,-3.7015,-3.7176,-3.7288,-3.7243,-3.7449,-3.7506,-3.7625,-3.7857,-3.7963,-3.7912,-3.8321,-3.8199,-3.8215,-3.823,-3.8362,-3.8402,-3.8437,-3.7976,-3.7974,-3.7972,0,0,-3.643,-3.6572,-3.667,-3.687,-3.6922,-3.6979,-3.7062,-3.7069,-3.7175,-3.7218,-3.7291,-3.7397,-3.7539,-3.7632,-3.7767,-3.8016,-3.8044,-3.8127,-3.8154,-3.8176,-3.8201,-3.834,-3.8379,-3.7964,-3.7963,-3.7963,0,0,-3.6383,-3.6503,-3.6482,-3.6719,-3.6821,-3.6931,-3.7053,-3.7031,-3.7157,-3.7142,-3.7163,-3.7192,-3.741,-3.7468,-3.7354,-3.7731,-3.7624,-3.7652,-3.7686,-3.7721,-3.7747,-3.7731,-3.7264,0,0,0,0,0,-3.6293,-3.6487,-3.6467,-3.6513,-3.6753,-3.6942,-3.6973,-3.6994,-3.6918,-3.7014,-3.7071,-3.7034,-3.7411,-3.731,-3.7356,-3.7485,-3.7859,-3.7877,-3.7895,-3.7998,-3.8033,-3.8063,0,0,0,0,0,0,-3.6312,-3.6368,-3.6462,-3.658,-3.6634,-3.6935,-3.6811,-3.6822,-3.6908,-3.6898,-3.7024,-3.7038,-3.7061,-3.7288,-3.7329,-3.7451,-3.725,-3.7866,-3.7882,-3.7896,-3.801,-3.8039,-3.8064,0,0,0,0,0,-3.6326,-3.6372,-3.675,-3.6577,-3.6624,-3.6699,-3.6804,-3.6812,-3.6879,-3.6969,-3.6981,-3.6888,-3.7064,-3.71,-3.7313,-3.7432,-3.7222,-3.7237,-3.7876,-3.7889,-3.79,-3.8024,0,0,0,0,0,0,-3.6337,-3.6381,-3.676,-3.6775,-3.6506,-3.6682,-3.6711,-3.6804,-3.6945,-3.6959,-3.6832,-3.6823,-3.7068,-3.7095,-3.7124,-3.7424,-3.7198,-3.7214,-3.7224,-3.7886,-3.7896,-3.7904,0,0,0,0,0,0,-3.6357,-3.6394,-3.6768,-3.6676,-3.6681,-3.6667,-3.6693,-3.6876,-3.6947,-3.68,-3.6797,-3.6826,-3.7026,-3.7093,-3.7115,-3.7401,-3.7181,-3.7196,-3.7206,-3.7212,-3.7894,-3.7901,0,0,0,0,0,0,-3.6373,-3.6405,-3.6672,-3.6676,-3.668,-3.6852,-3.683,-3.7075,-3.6867,-3.6795,-3.6849,-3.6841,-3.7026,-3.7048,-3.7109,-3.7386,-3.7397,-3.7181,-3.7191,-3.7198,-3.7203,0,0,0,0,0,0,0,-3.6386,-3.6166,-3.667,-3.6676,-3.6679,-3.6915,-3.6919,-3.6923,-3.6865,-3.6858,-3.6851,-3.6844,-3.7095,-3.7112,-3.7128,-3.7374,0,0,-3.718,-3.7187,0,0,0,0,0,0,0,0,-3.6153,-3.6163,-3.667,-3.6674,-3.6677,-3.6916,-3.6919,-3.6923,-3.6864,-3.6858,-3.6852,-3.6847,-3.71,-3.7113,-3.7126,0,0,0,0,0,0,0,0,0,0,0,0,0,0,0,-3.6671,-3.6673,0,-3.6916,-3.6919,-3.6922,-3.6863,-3.6858,-3.6853,-3.6849,-3.7103,-3.7114,-3.7125,0,0,0,0,0,0,0,0,0,0,0,0,0,0,0,0,0,0,0,0,0,0,0,0,0,0,0,0,0,0,0,0,0,0,0,0,0,0,0,0,0,0,0,0,0,0,0,0,0,0,0,0,0,0,0,0,0,0,0,0,0,0,0,0,0,0,0,0,0]}],[{"header":{"parameterUnit":"kt","parameterCategory":2,"dx":1,"dy":1,"la1":30.253999710083008,"la2":30.299108505249023,"lo1":-89.0895004272461,"lo2":-89.04439544677734,"nx":28,"ny":28,"refTime":"2022-09-25T21:00:00:Z","depth":0,"parameterNumber":2,"parameterNumberName":"V-component_of_WINDS"},"data":[-13.2086,-13.2299,-13.2278,-13.2509,-13.2529,-13.2681,-13.2729,-13.2786,-13.2826,-13.3002,-13.3099,-13.3095,-13.3123,-13.323,-13.333,-13.3325,-13.337,-13.3461,-13.3439,-13.3055,-13.3,-13.2948,-13.2897,-13.3471,-13.3471,-13.384,-13.3844,-13.3847,-13.1804,-13.1828,-13.1945,-13.2043,-13.2141,-13.2041,-13.2109,-13.2197,-13.2335,-13.2385,-13.2479,-13.2631,-13.2747,-13.2742,-13.2848,-13.2943,-13.29,-13.2973,-13.2965,-13.2971,-13.2559,-13.2506,-13.3006,-13.3006,-13.3006,-13.3006,-13.3005,-13.3005,-13.1286,-13.1415,-13.1463,-13.1588,-13.1631,-13.1696,-13.1813,-13.1808,-13.1919,-13.203,-13.1979,-13.2134,-13.2177,-13.2292,-13.2323,-13.244,-13.2354,-13.2426,-13.2444,-13.2463,-13.2488,-13.1959,-13.2457,-13.2455,-13.2454,-13.2452,-13.2451,0,-13.09,-13.0874,-13.0984,-13.1089,-13.1179,-13.1257,-13.1323,-13.1395,-13.1326,-13.142,-13.1554,-13.1626,-13.1768,-13.1888,-13.1981,-13.1998,-13.19,-13.1887,-13.1937,-13.1965,-13.1978,-13.1973,-13.1303,-13.1873,-13.1868,-13.1864,-13.1862,-13.186,-13.0376,-13.0529,-13.0567,-13.0647,-13.0678,-13.0809,-13.0881,-13.0809,-13.0888,-13.0957,-13.1072,-13.1192,-13.1285,-13.1499,-13.1486,-13.159,-13.1543,-13.1764,-13.1558,-13.1579,-13.1547,-13.1539,-13.1553,-13.1806,-13.1813,-13.1818,-13.1823,0,-13.0082,-13.0046,-13.0275,-13.0296,-13.0306,-13.0469,-13.0485,-13.0608,-13.0587,-13.0754,-13.0788,-13.0755,-13.0886,-13.0837,-13.0975,-13.0945,-13.1206,-13.1157,-13.1191,-13.1178,-13.1371,-13.1354,-13.2004,-13.2084,-13.1489,-13.1495,-13.1499,0,-12.9621,-12.9823,-12.9756,-12.9891,-13.0112,-13.0035,-13.0256,-13.026,-13.0297,-13.0427,-13.0309,-13.0433,-13.035,-13.0466,-13.0422,-13.0627,-13.0652,-13.0641,-13.0627,-13.0653,-13.0655,-13.0692,-13.0665,-13.0589,-13.0586,-13.0583,-13.0581,0,-12.9166,-12.9367,-12.9586,-12.9625,-12.9668,-12.9771,-12.9793,-12.9833,-12.9904,-12.9987,-13.0031,-13.0133,-13.0189,-13.0268,-13.0211,-13.0074,-13.046,-13.0259,-13.0448,-13.045,-13.0537,-13.0533,-13.112,-13.0577,-13.0576,-13.0575,-13.0573,0,-12.8787,-12.8877,-12.92,-12.9231,-12.9287,-12.943,-12.9526,-12.9637,-12.9688,-12.967,-12.9735,-12.9649,-12.9825,-12.9629,-12.9868,-12.9705,-12.9766,-12.9771,-12.9783,-12.9797,-12.9579,-12.9917,-13.0482,-13.0539,-12.9808,-12.9801,-12.9795,0,-12.8276,-12.8592,-12.8529,-12.8836,-12.8975,-12.8833,-12.8989,-12.9039,-12.9028,-12.9141,-12.9127,-12.9257,-12.91,-12.9134,-12.9259,-12.9249,-12.9461,-12.9219,-12.938,-12.9386,-12.9372,-12.989,-12.9987,-13.0363,-12.9713,-12.9722,-12.9728,0,-12.7876,-12.7928,-12.7988,-12.8029,-12.8084,-12.8199,-12.8379,-12.8492,-12.8571,-12.8639,-12.8787,-12.8967,-12.8856,-12.8913,-12.8854,-12.8987,-12.9315,-12.8849,-12.8849,-12.8935,-12.9667,-12.9758,-12.9822,-12.9245,-12.9255,-12.9263,-12.9663,0,-12.7312,-12.7465,-12.7624,-12.7721,-12.7802,-12.7992,-12.7942,-12.8033,-12.7969,-12.7953,-12.8169,-12.8196,-12.8308,-12.8367,-12.8305,-12.8625,-12.8563,-12.8444,-12.825,-12.859,-12.8721,-12.8774,-12.806,-12.8054,-12.8048,-12.8044,0,0,-12.6832,-12.705,-12.6975,-12.7149,-12.7213,-12.7063,-12.727,-12.7314,-12.7408,-12.7454,-12.7345,-12.7605,-12.7631,-12.7898,-12.8001,-12.8046,-12.8098,-12.7981,-12.8429,-12.8472,-12.8511,-12.8652,-12.8708,-12.8035,-12.8033,-12.8032,-12.803,0,-12.6616,-12.6652,-12.6858,-12.6901,-12.6962,-12.6936,-12.6986,-12.7019,-12.7018,-12.723,-12.7102,-12.7225,-12.7435,-12.748,-12.753,-12.7948,-12.7843,-12.7986,-12.8228,-12.8379,-12.8429,-12.8473,-12.8621,-12.8676,-12.8018,-12.8018,-12.8019,0,-12.6213,-12.6239,-12.6334,-12.6474,-12.6512,-12.6658,-12.6443,-12.6606,-12.6713,-12.6538,-12.6751,-12.6759,-12.6814,-12.7074,-12.7188,-12.7092,-12.7614,-12.744,-12.7471,-12.7483,-12.7626,-12.7686,-12.774,-12.7036,-12.7032,-12.7029,0,0,-12.6033,-12.6175,-12.6179,-12.6424,-12.6457,-12.6421,-12.6493,-12.6437,-12.6492,-12.6514,-12.6523,-12.6578,-12.6698,-12.678,-12.689,-12.7183,-12.7187,-12.7322,-12.7368,-12.7406,-12.7439,-12.7592,-12.7652,-12.7017,-12.7017,-12.7017,0,0,-12.5946,-12.5962,-12.5888,-12.6166,-12.6224,-12.6243,-12.6393,-12.6302,-12.6397,-12.6369,-12.6279,-12.629,-12.6532,-12.6545,-12.6389,-12.682,-12.6628,-12.6665,-12.6803,-12.6861,-12.6906,-12.6898,-12.6171,0,0,0,0,0,-12.57,-12.5959,-12.5893,-12.5932,-12.6108,-12.628,-12.6302,-12.6235,-12.6101,-12.6221,-12.6213,-12.6097,-12.6442,-12.6302,-12.6341,-12.6515,-12.6862,-12.6889,-12.6915,-12.7162,-12.7223,-12.7275,0,0,0,0,0,0,-12.5715,-12.5764,-12.5885,-12.5917,-12.5955,-12.627,-12.6029,-12.6017,-12.6086,-12.6061,-12.6102,-12.6098,-12.6042,-12.6277,-12.6313,-12.6481,-12.6158,-12.6872,-12.6896,-12.6917,-12.7183,-12.7233,-12.7276,0,0,0,0,0,-12.5726,-12.5765,-12.6065,-12.5912,-12.5946,-12.5919,-12.6018,-12.6007,-12.6059,-12.6048,-12.604,-12.6002,-12.6049,-12.6075,-12.6298,-12.6466,-12.6133,-12.6146,-12.6888,-12.6906,-12.6923,-12.7207,0,0,0,0,0,0,-12.5735,-12.5755,-12.607,-12.6078,-12.581,-12.59,-12.5912,-12.5999,-12.6039,-12.6034,-12.5942,-12.5922,-12.6057,-12.6075,-12.6096,-12.6465,-12.6112,-12.6126,-12.6135,-12.6902,-12.6916,-12.6929,0,0,0,0,0,0,-12.5733,-12.5763,-12.6074,-12.5949,-12.5941,-12.5883,-12.5894,-12.6073,-12.6041,-12.5931,-12.5915,-12.5933,-12.6025,-12.6077,-12.6092,-12.6376,-12.6096,-12.6109,-12.6119,-12.6124,-12.6914,-12.6925,0,0,0,0,0,0,-12.5744,-12.577,-12.5946,-12.5941,-12.5933,-12.6013,-12.604,-12.6223,-12.5937,-12.5931,-12.5909,-12.5896,-12.6031,-12.6044,-12.6091,-12.6369,-12.6374,-12.6096,-12.6105,-12.6112,-12.6116,0,0,0,0,0,0,0,-12.5753,-12.5603,-12.6026,-12.5934,-12.5927,-12.6148,-12.615,-12.6152,-12.5934,-12.5923,-12.5912,-12.5901,-12.602,-12.6034,-12.6049,-12.6363,0,0,-12.6095,-12.6102,0,0,0,0,0,0,0,0,-12.5591,-12.56,-12.6026,-12.6028,-12.6029,-12.6149,-12.615,-12.6152,-12.5932,-12.5923,-12.5914,-12.5906,-12.6024,-12.6035,-12.6047,0,0,0,0,0,0,0,0,0,0,0,0,0,0,0,-12.6026,-12.6028,0,-12.6149,-12.615,-12.6152,-12.5931,-12.5923,-12.5916,-12.5909,-12.6027,-12.6037,-12.6047,0,0,0,0,0,0,0,0,0,0,0,0,0,0,0,0,0,0,0,0,0,0,0,0,0,0,0,0,0,0,0,0,0,0,0,0,0,0,0,0,0,0,0,0,0,0,0,0,0,0,0,0,0,0,0,0,0,0,0,0,0,0,0,0,0,0,0,0,0]}]]]